This is the latest recevied weather packets stored in our database for station/object N3AVN. If no packets are shown the sender has not sent any weather packets the latest 10 day(s).
| Time | Temp. | Humidity | Pressure | Rain* | Wind** | Luminosity | Snow |
|---|---|---|---|---|---|---|---|
| 1778181352 | 17.22° C | 38% | 1006.8 hPa | 0 mm | - | 626 W/m² | - |
| 1778181049 | 16.67° C | 36% | 1006.9 hPa | 0 mm | - | 624 W/m² | - |
| 1778180746 | 16.11° C | 38% | 1006.8 hPa | 0 mm | - | 171 W/m² | - |
| 1778180445 | 16.67° C | 39% | 1007 hPa | 0 mm | - | 606 W/m² | - |
| 1778180143 | 15.56° C | 38% | 1007 hPa | 0 mm | - | 661 W/m² | - |
| 1778179839 | 15.56° C | 37% | 1007 hPa | 0 mm | - | 161 W/m² | - |
| 1778179538 | 17.22° C | 35% | 1007.1 hPa | 0 mm | - | 133 W/m² | - |
| 1778179235 | 17.78° C | 34% | 1007 hPa | 0 mm | - | 670 W/m² | - |
| 1778178931 | 17.78° C | 36% | 1007.1 hPa | 0 mm | - | 653 W/m² | - |
| 1778178628 | 16.11° C | 34% | 1007.2 hPa | 0 mm | - | 672 W/m² | - |
| 1778178324 | 16.67° C | 34% | 1007.1 hPa | 0 mm | - | 721 W/m² | - |
| 1778178020 | 17.22° C | 33% | 1007.2 hPa | 0 mm | - | 634 W/m² | - |
| 1778177718 | 17.22° C | 38% | 1007 hPa | 0 mm | - | 749 W/m² | - |
| 1778177414 | 16.67° C | 34% | 1007.1 hPa | 0 mm | - | 695 W/m² | - |
| 1778177110 | 16.67° C | 39% | 1007.4 hPa | 0 mm | - | 701 W/m² | - |
| 1778176807 | 16.67° C | 35% | 1007.3 hPa | 0 mm | - | 673 W/m² | - |
| 1778176503 | 16.67° C | 35% | 1007.3 hPa | 0 mm | - | 647 W/m² | - |
| 1778176201 | 16.67° C | 37% | 1007.5 hPa | 0 mm | - | 718 W/m² | - |
| 1778175898 | 16.67° C | 34% | 1007.5 hPa | 0 mm | - | 774 W/m² | - |
| 1778175595 | 16.67° C | 37% | 1007.5 hPa | 0 mm | - | 662 W/m² | - |
| 1778175292 | 16.67° C | 36% | 1007.7 hPa | 0 mm | - | 489 W/m² | - |
| 1778174989 | 16.67° C | 36% | 1007.5 hPa | 0 mm | - | 741 W/m² | - |
| 1778174685 | 17.22° C | 34% | 1007.5 hPa | 0 mm | - | 632 W/m² | - |
| 1778174382 | 16.11° C | 38% | 1007.7 hPa | 0 mm | - | 752 W/m² | - |
| 1778174078 | 17.22° C | 36% | 1007.7 hPa | 0 mm | - | 747 W/m² | - |
* Rain latest hour (hover to see other rain measurements)
** Current wind speed in m/s (hover to see current wind gust speed)